• Processing (Info)

  • MPEC 2005-K29 : COMET C/2005 H1 (LINEAR)

    The following Minor Planet Electronic Circular may be linked-to from your own Web pages, but must not otherwise be redistributed electronically.

    A form allowing access to any MPEC is at the bottom of this page.


    Read MPEC 2005-K28 Read MPEC 2005-K30


    M.P.E.C. 2005-K29                                Issued 2005 May 23, 15:19 UT
    
         The Minor Planet Electronic Circulars contain information on unusual
             minor planets and routine data on comets.  They are published
       on behalf of Commission 20 of the International Astronomical Union by the
              Minor Planet Center, Smithsonian Astrophysical Observatory,
                              Cambridge, MA 02138, U.S.A.
    
                      Supported in part by the Brinson Foundation
                 Prepared using the Tamkin Foundation Computer Network
    
                                  MPC@CFA.HARVARD.EDU
              URL http://cfa-www.harvard.edu/iau/mpc.html  ISSN 1523-6714
    
                               COMET C/2005 H1 (LINEAR)
    
    Observations:
        CK05H010   2005 05 12.66076 17 01 18.12 +47 51 19.8          18.8 T EK029372
        CK05H010  C2005 05 15.67530 16 57 38.55 +47 43 00.0          19.2 T EK029360
        CK05H010   2005 05 15.67917 16 57 38.18 +47 43 00.2          18.6 T EK029372
        CK05H010  C2005 05 15.68066 16 57 38.20 +47 42 59.2                 EK029360
        CK05H010  C2005 05 15.68870 16 57 37.60 +47 42 57.1                 EK029360
        CK05H010   2005 05 16.66701 16 56 25.75 +47 39 48.7                 EK029372
        CK05H010   2005 05 16.70694 16 56 22.64 +47 39 40.5          19.3 T EK029372
        CK05H010  C2005 05 19.00234 16 53 33.10 +47 31 17.3          19.7 T EK029224
        CK05H010  C2005 05 19.01541 16 53 32.08 +47 31 13.9          19.5 T EK029224
        CK05H010  C2005 05 19.02852 16 53 31.10 +47 31 09.8          20.1 T EK029224
        CK05H010  C2005 05 19.88487 16 52 27.57 +47 27 43.0                 EK029557
        CK05H010  C2005 05 19.89156 16 52 27.00 +47 27 41.7                 EK029557
        CK05H010  C2005 05 19.89380 16 52 26.85 +47 27 40.1                 EK029557
        CK05H010  C2005 05 19.89603 16 52 26.76 +47 27 39.5                 EK029557
        CK05H010  C2005 05 19.90271 16 52 26.30 +47 27 38.8                 EK029557
        CK05H010  C2005 05 19.90494 16 52 26.08 +47 27 38.6                 EK029557
        CK05H010  C2005 05 19.90718 16 52 25.86 +47 27 37.9                 EK029557
        CK05H010  C2005 05 19.90940 16 52 25.74 +47 27 35.7                 EK029557
        CK05H010  C2005 05 20.98859 16 51 05.53 +47 23 01.1                 EK029213
        CK05H010  C2005 05 20.99046 16 51 05.38 +47 23 00.7                 EK029213
        CK05H010  C2005 05 20.99232 16 51 05.27 +47 23 00.1                 EK029213
    
    Observer details:
    213 Observatorio Montcabre.  Observer R. Naves.  Measurer M. Campas.  0.30-m
        f/5.9 Schmidt-Cassegrain + CCD.
    224 Ottmarsheim.  Observer C. Rinner.  0.4-m f/2.25 reflector + CCD.
    360 Kuma Kogen.  Observer A. Nakamura.  0.60-m f/5.8 Ritchey-Chretien + CCD.
    372 Geisei.  Observer T. Seki.  0.60-m f/3.5 reflector.
    557 Ondrejov.  Observer K. Hornoch.  Measurer P. Kusnirak.  0.65-m f/3.6
        reflector + CCD.
    
    Orbital elements:
        C/2005 H1 (LINEAR)
    T 2004 Oct. 28.626 TT                                   MPC
    q   4.76683              (2000.0)            P               Q
    z  +0.02191        Peri.   95.219       -0.168572       -0.302847
                       Node    71.523       -0.428081       -0.834707
    e   0.89557        Incl.   81.492       +0.887880       -0.459943
    From 89 observations 2005 Apr. 30-May 20.
    
    Ephemeris:
        C/2005 H1 (LINEAR)
    Date    TT    R. A. (2000) Decl.     Delta      r     Elong.  Phase   m1    m2
    2005 05 20    16 52.32   +47 27.2    4.547    5.000   111.0    10.9  18.3
    2005 05 30    16 39.95   +46 33.4    4.560    5.023   111.6    10.8  18.3
    2005 06 09    16 28.07   +45 15.5    4.590    5.046   111.2    10.8  18.3
    2005 06 19    16 17.31   +43 35.4    4.638    5.071   109.7    10.9  18.4
    2005 06 29    16 08.09   +41 36.4    4.704    5.096   107.1    11.0  18.4
    2005 07 09    16 00.66   +39 22.9    4.787    5.123   103.6    11.1  18.5
    2005 07 19    15 55.12   +36 59.2    4.885    5.150    99.4    11.2  18.6
    2005 07 29    15 51.41   +34 30.0    4.998    5.178    94.5    11.3  18.6
    
    Brian G. Marsden             (C) Copyright 2005 MPC           M.P.E.C. 2005-K29
    

    Read MPEC 2005-K28 Read MPEC 2005-K30


    MPEC number:

    Enter an MPEC number in one of the following forms:

    • 1997-B01 (the full form)
    • J97B01 (the packed version of the full form)
    • B01 (the abbreviated form)